Probability
0 0 0 0 0 0 0 0 0 0 0 0 0 0 0 0 0 0 0 0 0 0 0 0 0 0 0 0 0 0 0 0 0 0 0 0 0 0 0 0 0 0 0 0
0 0 0 0 0 0 0 0 0 0 0 0 0 0 0 0 0 0 0 0 0 0 0 0 0 0 0 0 0 0 0 0 0 0 0 0 0 0 0 0 0 0 0 0
0 0 0 0 0 0 0 0 0 0 0 0 0 0 0 0 0 0 0 0 0 0 0 0 0 0 0 0 0 0 0 0 0 0 0 0 0 0 0 0 0 0 0 0
0 0 0 0 0 0 0 0 0 0 0 0 0 0 0 0 0 0 0 0 0 0 0 0 0 0 0 0 0 0 0 0 0 0 0 0 0 0 0 0 0 0 0 0
0 0 0 0 0 0 0 0 0 0 0 0 0 0 0 0 0 0 0 0 0 0 0 0 0 0 0 0 0 0 0 0 0 0 0 0 0 0 0 0 0 0 0 0
0 0 0 0 0 0 0 0 0 0 0 0 0 0 0 0 0 0 0 0 0 0 0 0 0 0 0 0 0 0 0 0 0 0 0 0 0 0 0 0 0 0 0 0
0 0 0 0 0 0 0 0 0 0 0 0 0 0 0 0 0 0 0 0 0 0 0 0 0 0 0 0 0 0 0 0 0 0 0 0 0 0 0 0 0 0 0 0
0 0 0 0 0 0 0 0 0 0 0 0 0 0 0 0 0 0 0 0 0 0 0 0 0 0 0 0 0 0 0 0 0 0 0 0 0 0 0 0 0 0 0 0
0 0 0 0 0 0 0 0 0 0 0 0 0 0 0 0 0 0 0 0 0 0 0 0 0 0 0 0 0 0 0 0 0 0 0 0 0 0 0 0 0 0 0 0
0 0 0 0 0 0 0 0 0 0 0 0 0 0 0 0 0 0 0 0 0 0 0 0 0 0 0 0 0 0 0 0 0 0 0 0 0 0 0 0 0 0 0 0
0 0 0 0 0 0 0 0 0 0 0 0 0 0 0 0 0 0 0 0 0 0 0 0 0 0 0 0 0 0 0 0 0 0 0 0 0 0 0 0 0 0 0 0
0 0 0 0 0 0 0 0 0 0 0 0 0 0 0 0 0 0 0 0 0 0 0 0 0 0 0 0 0 0 0 0 0 0 0 0 0 0 0 0 0 0 0 0
0 0 0 0 0 0 0 0 0 0 0 0 0 0 0 0 0 0 0 0 0 0 0 0 0 0 0 0 0 0 0 0 0 0 0 0 0 0 0 0 0 0 0 0
0 0 0 0 0 0 0 0 0 0 0 0 0 0 0 0 0 0 0 0 0 0 0 0 0 0 0 0 0 0 0 0 0 0 0 0 0 0 0 0 0 0 0 0
0 0 0 0 0 0 0 0 0 0 0 0 0 0 0 0 0 0 0 0 0 0 0 0 0 0 0 0 0 0 0 0 0 0 0 0 0 0 0 0 0 0 0 0
0 0 0 0 0 0 0 0 0 0 0 0 0 0 0 0 0 0 0 0 0 0 0 0 0 0 0 0 0 0 0 0 0 0 0 0 0 0 0 0 0 0 0 0
0 0 0 0 0 0 0 0 0 0 0 0 0 0 0 0 0 0 0 0 0 0 0 0 0 0 0 0 0 0 0 0 0 0 0 0 0 0 0 0 0 0 0 0
0 0 0 0 0 0 0 0 0 0 0 0 0 0 0 0 0 0 0 0 0 0 0 0 0 0 0 0 0 0 0 0 0 0 0 0 0 0 0 0 0 0 0 0
0 0 0 0 0 0 0 0 0 0 0 0 0 0 0 0 0 0 0 0 0 0 0 0 0 0 0 0 0 0 0 0 0 0 0 0 0 0 0 0 0 0 0 0
0 0 0 0 0 0 0 0 0 0 0 0 0 0 0 0 0 0 0 0 0 0 0 0 0 0 0 0 0 0 0 0 0 0 0 0 0 0 0 0 0 0 0 0
0 0 0 0 0 0 0 0 0 0 0 0 0 0 0 0 0 0 0 0 0 0 0 0 0 0 0 0 0 0 0 0 0 0 0 0 0 0 0 0 0 0 0 0
0 0 0 0 0 0 0 0 0 0 0 0 0 0 0 0 0 0 0 0 0 0 0 0 0 0 0 0 0 0 0 0 0 0 0 0 0 0 0 0 0 0 0 0
0 0 0 0 0 0 0 0 0 0 0 0 0 0 0 0 0 0 0 0 0 0 0 0 0 0 0 0 0 0 0 0 0 0 0 0 0 0 0 0 0 0 0 0
0 0 0 0 0 0 0 0 0 0 0 0 0 0 0 0 0 0 0 0 0 0 0 0 0 0 0 0 0 0 0 0 0 0 0 0 0 0 0 0 0 0 0 0
0 0 0 0 0 0 0 0 0 0 0 0 0 0 0 0 0 0 0 0 0 0 0 0 0 0 0 0 0 0 0 0 0 0 0 0 0 0 0 0 0 0 0 0
0 0 0 0 0 0 0 0 0 0 0 0 0 0 0 0 0 0 0 0 0 0 0 0 0 0 0 0 0 0 0 0 0 0 0 0 0 0 0 0 0 0 0 0
0 0 0 0 0 0 0 0 0 0 0 0 0 0 0 0 0 0 0 0 0 0 0 0 0 0 0 0 0 0 0 0 0 0 0 0 0 0 0 0 0 0 0 0
Wind_Speed
6 5 7 8 10 12 12 12 11 11 12 15 12 9 8 6 4 4 6 8 10 11 10 10 9 9 9 9 8 8 8 7 7 5 4 4 4 4 3 4 4 4 5 5
5 6 6 6 8 11 12 10 11 9 12 13 9 5 6 7 6 7 8 9 9 9 10 11 11 11 10 9 9 8 8 7 6 5 4 4 4 4 3 4 4 4 5 6
5 3 2 8 11 12 9 9 10 14 17 10 6 8 9 8 8 9 9 8 9 10 10 10 11 10 11 9 8 8 7 6 5 5 4 4 4 3 4 5 4 5 6 6
4 4 9 10 7 11 10 10 11 10 9 8 9 7 5 6 7 8 7 6 7 7 7 7 7 7 8 8 8 8 6 5 5 4 4 4 3 4 5 4 5 5 6 7
5 6 7 8 5 8 10 10 11 13 11 6 2 1 5 6 6 6 5 5 5 5 6 6 8 8 9 8 7 7 6 5 5 4 4 4 4 5 5 4 5 6 6 7
6 6 8 9 5 5 6 7 8 10 11 6 6 2 6 2 3 3 3 4 5 6 6 7 7 8 9 8 7 6 5 5 4 4 4 5 6 5 4 4 6 6 7 7
6 6 9 8 3 8 6 10 5 7 8 9 9 7 2 3 3 3 4 5 6 7 7 6 7 8 8 7 6 5 4 3 3 3 4 5 4 4 4 5 6 6 8 8
7 6 10 6 8 10 10 3 3 4 6 8 7 3 3 3 4 5 5 6 7 7 6 5 6 8 7 5 4 3 3 3 3 3 3 3 4 5 5 5 6 7 8 9
11 10 6 8 10 7 4 5 5 5 5 7 6 5 5 4 5 5 5 6 6 8 7 5 5 6 6 4 3 3 2 3 3 3 3 3 4 5 5 5 5 7 7 8
5 7 6 6 5 4 5 5 4 5 6 8 7 7 6 6 5 5 5 5 6 8 7 5 4 4 4 3 3 3 2 3 3 3 4 4 4 4 5 5 6 7 8 9
5 5 3 6 8 8 6 5 4 4 5 7 7 7 7 7 7 6 5 5 6 7 6 5 4 3 3 3 3 2 3 3 4 4 5 5 5 5 6 6 7 9 8 8
9 9 8 8 7 7 8 8 8 7 5 4 7 7 7 7 6 6 6 6 6 5 5 4 4 3 2 2 3 3 3 4 3 4 4 4 5 7 11 13 17 19 20 18
7 5 6 3 2 5 7 7 7 7 7 6 5 6 8 6 6 6 6 6 6 6 5 4 3 2 2 2 3 4 4 4 4 4 4 5 5 7 9 10 14 18 20 22
4 4 4 5 5 5 5 5 5 5 4 5 6 6 7 6 6 7 7 6 5 5 4 3 3 3 2 2 3 4 4 6 6 4 5 5 6 7 7 9 11 8 11 18
6 6 5 4 4 5 5 6 7 5 5 5 5 7 8 8 7 6 5 5 5 4 3 2 2 3 2 2 3 4 4 4 4 5 5 6 6 7 7 9 10 11 9 10
6 4 4 5 6 6 6 7 7 7 6 6 6 6 6 6 6 6 5 5 5 3 2 2 3 3 2 3 4 4 4 9 9 5 5 6 6 7 8 9 10 10 10 9
8 8 7 6 7 7 7 7 7 7 7 7 7 7 7 7 6 5 4 3 2 2 2 3 4 3 3 3 4 4 4 6 12 8 6 7 7 8 9 9 10 11 10 12
8 9 9 9 9 8 7 6 7 7 7 7 8 8 8 7 6 5 3 2 1 1 2 3 4 4 4 4 4 4 5 5 6 7 7 7 9 8 9 10 11 12 11 12
6 6 7 7 7 8 8 7 7 7 7 8 8 7 5 5 4 4 3 2 1 3 4 3 6 5 5 6 7 4 6 7 8 8 8 12 12 9 9 10 11 11 12 11
5 6 8 8 7 7 8 8 8 8 7 7 8 7 5 4 3 3 1 1 3 4 4 5 5 5 5 7 10 5 6 8 9 9 9 9 10 10 10 11 11 11 11 11
8 9 10 10 9 8 8 9 9 9 7 7 7 6 5 3 2 2 1 2 3 3 4 8 5 5 5 8 11 6 7 8 9 9 9 10 10 11 11 11 11 12 12 12
8 10 11 11 11 10 7 8 9 9 8 6 6 5 4 2 1 0 2 4 4 7 5 4 4 9 12 13 6 6 7 8 9 9 9 10 10 11 12 12 12 12 12 12
9 11 11 11 11 10 9 8 7 7 7 5 4 3 2 1 1 1 3 3 3 8 6 5 10 16 19 10 6 7 8 9 9 10 10 10 11 11 12 13 12 12 12 12
11 11 11 10 10 11 9 6 6 6 5 4 3 2 1 0 2 2 3 7 10 12 6 10 17 19 18 7 6 7 8 9 10 10 11 11 11 11 12 12 12 12 12 14
11 10 10 10 9 7 7 6 6 5 4 3 2 1 0 1 2 3 4 5 10 12 7 10 17 18 11 7 8 8 9 10 11 12 11 11 11 12 12 12 12 13 13 13
9 8 7 7 6 5 4 4 3 3 2 2 2 1 1 2 3 3 4 5 8 11 8 7 8 11 8 8 9 10 10 11 12 11 11 12 13 13 13 13 15 13 13 13
9 8 7 6 5 5 4 4 3 2 2 1 2 2 3 3 4 4 5 6 6 7 7 7 7 8 9 9 10 10 10 11 11 11 12 12 12 12 13 14 13 13 12 13
Wind_Direction
198 183 167 188 195 189 198 205 211 229 233 249 254 252 260 262 248 219 215 206 201 199 194 187 184 182 180 176 171 166 165 174 185 185 185 192 206 220 230 239 246 253 263 270
208 205 194 215 217 204 213 220 229 247 259 251 254 246 252 252 239 232 228 217 207 198 190 188 187 182 177 175 171 165 170 179 178 177 186 201 216 226 239 252 259 261 263 267
208 200 174 243 215 201 204 205 197 223 242 250 245 238 239 242 234 232 231 217 205 199 195 190 184 176 177 171 159 162 170 173 176 181 195 213 222 231 246 255 260 266 266 265
154 141 222 238 214 199 206 222 209 222 238 235 231 239 242 230 226 232 224 210 201 191 185 175 164 159 153 149 155 161 167 174 180 185 204 219 230 243 252 253 256 262 266 267
149 198 259 285 246 187 194 244 221 221 239 240 211 334 281 233 214 221 213 196 182 169 157 148 151 148 141 145 150 158 171 182 189 192 206 223 239 249 252 255 261 260 262 267
148 180 226 239 228 169 136 260 241 205 223 203 143 187 262 230 180 176 149 141 137 130 125 137 142 139 139 148 156 174 184 190 193 196 209 227 241 251 254 254 261 268 270 266
162 202 248 244 177 123 166 237 238 194 198 172 185 203 204 124 118 125 119 120 125 126 130 139 139 136 141 151 174 182 174 180 195 210 222 234 246 253 263 268 273 273 275 273
159 192 243 213 149 182 212 211 181 181 182 181 193 159 142 142 135 131 124 123 127 125 122 127 137 137 143 164 173 159 162 185 217 232 241 246 251 265 267 268 275 277 280 281
186 207 219 180 195 210 179 187 196 187 186 169 171 182 172 162 153 146 140 137 131 130 125 126 136 140 149 167 155 152 169 213 236 250 253 250 251 263 270 265 269 279 281 285
211 248 238 224 230 224 200 204 201 186 171 166 176 177 171 163 158 152 145 142 136 135 136 141 145 143 154 159 155 160 203 237 248 256 265 261 255 253 259 263 268 275 280 284
219 253 277 259 227 218 206 200 184 170 172 177 170 170 169 167 166 160 150 144 144 147 148 155 153 153 159 161 156 185 228 247 255 253 257 265 260 251 260 248 254 271 274 273
209 208 194 223 220 195 189 198 190 171 166 169 172 170 163 165 163 157 153 146 144 145 149 156 156 164 176 177 175 197 240 251 252 256 260 263 272 280 270 271 281 282 283 284
204 196 192 221 195 179 189 194 180 174 170 165 164 160 155 153 154 149 149 152 157 159 158 157 162 185 204 198 197 215 238 253 256 257 262 267 273 281 291 290 283 285 287 289
191 148 179 206 201 180 163 146 135 131 139 144 144 140 139 136 143 151 160 161 151 145 149 158 176 217 226 216 222 238 246 260 266 257 259 265 269 273 279 289 297 290 286 289
202 195 193 166 137 132 131 127 128 136 135 129 134 139 144 149 156 157 146 135 131 136 152 170 210 245 242 230 239 250 255 258 260 259 260 264 269 273 276 279 284 290 292 290
181 165 157 156 162 155 147 152 154 162 154 146 145 147 146 140 133 128 129 136 142 164 188 210 243 254 252 246 254 259 260 277 284 276 268 270 271 275 279 281 284 287 288 291
159 178 181 180 183 179 179 176 167 160 151 150 149 136 127 123 121 125 131 136 146 177 211 233 253 266 265 257 256 261 263 276 287 286 274 274 275 276 278 280 283 285 284 287
195 192 181 175 174 172 167 157 149 146 147 143 132 130 134 141 148 150 143 121 90 322 267 249 255 269 267 265 261 259 265 268 271 272 275 276 278 275 276 279 282 284 286 289
175 164 159 157 154 151 147 145 141 133 129 131 132 134 133 131 130 131 128 128 190 275 274 267 287 287 275 275 284 264 267 274 278 276 276 283 287 280 279 280 281 282 285 287
138 134 131 127 125 128 130 126 122 119 122 124 120 116 114 115 120 124 134 220 236 239 260 283 288 276 273 276 288 271 269 274 278 281 282 280 282 283 282 282 283 283 284 284
129 126 123 119 110 107 115 121 121 119 116 118 122 125 124 119 121 129 160 279 277 263 274 290 290 280 281 284 290 274 272 276 280 282 284 285 285 286 285 285 284 285 285 284
120 118 115 113 109 100 95 101 109 112 110 105 104 109 110 108 103 267 242 245 271 295 298 279 278 287 294 297 284 277 278 281 284 284 284 284 285 286 286 285 284 284 284 283
110 111 110 109 109 105 94 92 98 105 106 107 108 111 118 161 216 260 291 281 282 298 301 281 293 300 304 302 287 285 285 286 285 285 284 283 283 283 284 284 284 284 284 284
104 103 103 104 104 101 96 90 88 89 90 86 85 92 104 325 295 256 259 296 306 306 298 296 304 306 310 302 291 288 286 285 284 283 283 282 282 282 283 284 285 285 284 283
103 102 103 103 99 98 102 99 88 81 76 67 48 19 325 245 262 286 289 292 302 309 300 302 307 309 307 293 289 287 285 283 284 287 285 287 287 286 285 285 284 284 284 282
97 95 91 90 96 101 99 94 88 74 61 37 0 340 320 299 287 289 292 292 293 304 304 296 296 299 294 290 288 287 286 290 291 289 286 286 286 285 285 285 284 283 283 282
89 90 90 83 73 76 81 83 82 63 34 1 326 320 320 316 309 305 303 301 300 300 297 296 294 292 291 290 290 289 288 288 288 287 287 287 286 286 285 285 285 285 284 283